Location: Rowland
(34.5359°N, 79.2929°W)
Time: 19:23:28
(UTC+00:00)

Transit 2A Rocket - Pass Details

Date: 07 October 2022
Orbit: 589 x 911 km, 66.7° (Epoch: 03 December)

Event Time Altitude Azimuth Distance (km) Brightness Sun altitude
Rises 19:39:49 0° 324° (NW) 3,093 8.1 35.7°
Reaches altitude 10° 19:42:10 10° 318° (NW) 2,221 7.5 35.3°
Maximum altitude 19:46:57 42° 248° (WSW) 1,098 7.9 34.5°
Drops below altitude 10° 19:52:08 10° 179° (S) 2,412 8.2 33.7°
Sets 19:54:47 0° 173° (S) 3,390 8.7 33.2°
